Wind_Speed
2 3 3 5 7 8 8 8 10 11 9 8 7 6 7 7 7 8 9 10 10 11 12 14 16 17 15 13 11 9 7 7 8 7 7 9 11 12 14 14 15 16 15 16 21 27 30 32 34 34 34 34 33 35 37 38 39 40 41 39 38 38 37 35 32 31 31 29 27 27 28 28 26 24 23 22 22 21 20 18 16 15 15 16 17 17
1 3 5 8 9 9 8 7 8 10 10 9 8 7 7 7 7 7 9 11 10 8 11 15 18 20 17 12 11 12 10 9 10 8 8 11 12 11 12 14 16 13 10 13 17 24 29 31 32 33 34 36 36 37 40 41 41 41 41 40 39 38 38 38 35 33 32 31 29 29 29 28 25 23 23 22 21 20 18 16 15 16 16 17 17 18
3 4 9 11 9 8 8 8 9 10 9 9 7 7 7 5 6 9 10 11 12 7 7 15 19 20 18 13 11 13 14 12 11 10 10 12 13 12 13 13 11 8 8 13 15 19 26 30 32 33 34 38 39 39 40 41 41 40 39 38 38 38 39 38 36 35 33 31 30 28 27 27 24 22 21 21 20 19 17 16 16 16 17 17 18 18
3 6 10 10 8 8 9 10 11 10 7 7 7 7 8 7 5 5 8 9 11 10 9 11 14 15 15 13 11 12 13 14 13 13 11 11 13 15 16 14 13 12 12 14 14 16 21 26 29 30 32 35 35 36 37 38 39 37 36 36 37 39 39 38 37 35 33 31 29 26 25 25 23 21 20 20 19 18 18 17 17 17 17 18 18 19
7 9 8 7 7 9 11 11 11 8 6 7 9 8 9 10 8 6 8 9 7 10 14 12 10 9 10 11 12 10 11 15 16 13 11 10 12 14 15 15 15 16 17 17 17 16 16 20 27 31 32 33 34 37 39 40 40 37 36 37 38 39 39 37 36 34 32 31 28 25 23 23 22 21 22 22 21 20 20 19 19 18 18 19 19 19
8 10 7 7 8 10 11 11 11 8 6 7 9 10 11 12 12 10 11 9 6 6 13 14 11 9 8 11 14 11 11 14 15 13 13 12 10 11 14 15 14 15 17 19 20 19 17 21 27 29 31 33 34 38 41 42 41 38 38 38 38 38 37 36 36 35 33 32 30 28 27 25 24 24 24 25 25 24 23 22 21 20 19 19 19 19
7 9 7 8 9 10 11 10 11 10 6 6 7 10 12 13 14 14 13 8 3 5 8 12 13 10 7 9 12 13 14 16 14 12 14 13 10 11 13 15 15 14 14 16 18 19 19 21 23 25 31 34 35 38 40 40 39 39 38 38 37 37 36 35 35 35 34 33 31 30 30 28 27 25 24 25 27 26 25 24 23 21 20 19 19 19
4 7 7 8 9 8 8 8 10 10 7 6 8 9 11 12 14 15 14 9 5 7 10 10 10 10 8 7 9 13 16 17 16 14 14 13 13 14 14 15 17 18 17 15 16 18 19 20 23 27 33 36 36 36 37 38 38 39 39 38 38 37 36 35 35 35 35 34 32 31 30 29 29 27 25 26 27 26 26 25 23 22 20 19 19 19
2 6 7 8 8 6 6 8 9 10 8 8 9 10 10 11 12 12 12 9 8 7 9 10 8 7 8 6 7 12 16 17 18 18 17 14 14 14 14 16 18 19 20 19 19 19 18 21 27 33 36 36 36 36 39 40 39 39 39 38 37 37 36 35 35 35 35 35 33 32 30 29 28 27 27 28 28 27 27 25 24 22 22 20 19 19
4 6 7 6 5 4 6 9 9 10 10 10 11 10 10 10 11 11 9 8 8 8 9 12 8 5 6 6 8 10 13 15 16 17 17 13 12 12 13 17 18 17 17 18 20 20 20 26 33 35 34 34 34 36 38 37 36 37 37 37 37 37 36 35 35 36 35 34 33 32 31 30 28 27 28 28 28 28 27 26 25 24 23 22 20 18
6 6 6 5 5 6 9 10 9 10 12 11 10 10 8 8 8 8 6 6 8 8 10 15 13 8 6 5 8 9 12 16 14 11 11 11 12 12 12 14 16 16 15 16 17 18 21 28 32 29 27 29 32 33 33 33 35 37 36 36 37 37 36 35 35 36 35 34 34 33 32 32 30 29 30 29 28 28 28 27 27 25 23 22 20 18
6 7 6 6 7 8 9 9 11 12 13 11 7 7 6 5 5 5 5 6 7 7 9 13 14 11 8 6 7 11 15 17 15 11 10 12 13 13 11 12 13 15 16 16 16 16 17 18 19 20 23 27 29 30 32 33 35 36 36 36 36 36 36 36 36 36 36 34 34 33 32 32 32 32 33 32 30 30 29 28 27 26 23 22 21 19
4 7 7 7 8 9 7 7 9 10 9 9 6 5 5 4 4 5 6 5 6 7 9 11 11 10 9 7 9 15 15 14 14 14 13 13 13 13 13 13 13 14 15 16 16 15 15 14 14 18 23 27 29 33 34 34 35 35 35 36 36 36 36 36 36 36 35 35 34 33 32 32 32 33 34 33 32 31 30 29 29 28 26 24 23 21
4 5 7 7 7 7 7 6 6 6 4 6 6 5 5 5 5 5 5 5 5 7 12 14 11 7 7 7 10 16 15 12 13 14 14 14 15 15 15 15 14 15 16 16 16 16 15 15 14 19 25 29 32 34 34 34 34 34 33 35 36 36 36 36 36 36 35 35 34 33 32 32 33 33 33 33 32 31 30 30 31 31 29 28 25 24
3 5 6 7 4 5 8 8 8 7 5 5 6 6 6 5 4 4 4 4 5 6 11 13 10 6 6 7 9 14 14 13 13 11 11 13 15 15 15 15 15 16 16 16 16 17 17 18 19 22 27 31 32 33 33 33 34 33 33 35 36 36 36 35 35 36 36 35 34 32 32 32 33 33 33 32 32 32 31 31 33 31 30 28 26 24
4 6 5 6 5 3 5 7 7 7 6 5 5 6 6 6 4 4 5 4 4 6 8 8 6 5 6 7 8 11 13 13 15 15 13 12 13 13 13 14 15 16 16 16 16 17 18 19 21 25 28 29 30 32 33 33 34 34 34 36 37 36 36 35 35 36 36 35 33 32 32 32 33 33 33 32 31 32 31 30 32 31 29 27 25 23
3 5 4 2 5 5 6 7 6 5 4 3 3 4 6 6 5 4 5 3 1 4 6 5 4 5 6 8 8 8 12 14 15 17 17 15 14 13 13 13 14 15 16 16 16 17 18 18 20 25 27 28 29 31 34 35 37 38 37 37 36 34 34 34 35 35 34 34 33 32 32 32 33 33 32 32 31 31 29 28 30 30 28 26 24 24
2 5 5 4 8 8 4 6 8 8 7 4 3 3 3 3 4 2 3 3 1 2 5 6 7 5 5 7 6 5 12 15 15 16 17 18 16 15 15 13 14 16 16 17 17 18 19 18 19 23 27 29 32 34 35 37 38 38 37 37 36 34 35 36 36 35 34 33 33 32 33 33 33 33 32 32 31 30 28 27 28 29 27 26 25 25
1 3 6 5 7 7 4 4 6 6 7 7 4 2 2 1 2 2 2 2 2 2 3 5 9 7 5 5 6 6 10 15 17 16 18 19 17 15 15 14 15 17 16 15 16 16 17 16 18 23 26 28 30 33 35 37 36 35 34 35 36 36 37 36 35 34 33 33 33 32 33 33 33 33 32 32 30 29 29 28 30 30 28 26 27 26
2 1 4 4 3 3 3 2 2 4 4 3 2 2 1 2 2 2 3 2 2 1 3 3 5 6 5 5 7 9 9 12 15 15 16 19 18 15 15 15 15 16 15 14 15 16 17 17 20 25 27 29 31 32 33 34 34 34 34 34 34 34 33 33 33 33 33 33 32 32 33 33 33 33 32 32 31 30 30 30 31 31 29 28 28 27
2 2 2 5 3 2 1 2 3 3 2 1 2 2 2 1 1 2 3 3 3 2 1 3 4 5 5 5 7 11 10 10 11 11 12 13 14 14 15 15 16 16 16 16 16 17 19 18 19 24 27 29 32 32 32 33 33 34 33 33 34 33 33 34 35 35 35 34 31 31 33 33 33 33 33 32 31 31 31 31 32 32 30 29 30 29
1 1 1 4 4 1 4 5 2 1 2 3 4 4 3 3 2 3 2 3 5 4 3 3 5 6 6 5 7 9 9 10 10 10 9 9 11 13 14 16 17 16 16 17 18 18 18 16 16 21 25 26 28 29 31 32 32 31 32 33 34 34 34 35 36 36 36 34 32 32 34 33 33 33 33 32 32 31 32 32 33 32 31 31 31 30
2 2 0 4 5 6 11 11 8 7 6 4 3 2 2 1 2 2 2 2 4 3 3 3 5 7 7 6 8 10 9 9 10 9 9 9 10 12 13 15 16 16 17 18 19 18 16 15 17 21 25 26 28 29 31 31 31 32 33 34 34 34 35 36 36 36 35 34 33 33 34 33 32 33 33 33 33 32 33 33 33 33 33 32 32 30
3 2 1 3 5 7 11 10 8 8 3 2 3 1 2 1 2 3 3 2 3 2 2 2 5 8 7 3 4 12 13 10 8 8 10 10 8 9 13 15 16 17 19 19 18 16 14 14 16 18 20 24 27 28 30 31 32 33 33 33 34 35 35 35 35 35 34 34 34 34 34 34 33 33 34 34 34 33 33 34 34 34 34 33 32 30
1 2 2 2 3 2 1 1 3 5 1 2 3 2 3 4 4 3 4 3 4 3 3 2 5 8 6 6 7 9 13 12 9 7 10 10 8 9 11 14 15 16 18 18 17 16 15 16 16 16 17 22 25 27 29 31 31 31 32 33 34 34 34 34 34 35 35 34 34 34 34 34 34 34 35 35 34 34 35 34 35 35 34 33 32 30
3 2 2 2 2 3 3 3 3 3 3 1 2 1 2 5 5 3 2 3 5 4 2 3 6 8 9 9 10 12 10 9 10 8 7 8 8 10 10 11 14 15 16 19 18 17 17 17 17 16 17 21 25 27 28 29 30 31 32 33 33 33 33 34 34 34 35 35 35 34 34 34 35 35 35 35 35 35 36 35 35 35 35 34 32 30
2 3 4 4 4 4 4 4 4 3 1 3 3 2 2 6 8 3 0 3 6 5 4 6 6 7 12 11 10 13 12 8 8 7 8 7 7 10 10 10 13 14 16 18 18 17 17 16 17 17 17 20 25 27 29 30 31 32 32 32 32 32 32 33 33 34 35 35 35 35 34 35 35 35 35 36 36 36 36 36 36 36 35 33 31 29
2 2 5 6 7 7 5 5 6 5 4 4 3 2 3 6 7 3 3 6 6 4 6 8 4 4 8 9 9 12 12 9 8 7 7 9 8 8 9 11 14 15 16 17 17 18 18 17 17 17 16 19 24 26 28 30 32 33 33 33 33 32 32 33 34 34 34 35 35 35 35 35 35 35 36 36 37 36 36 36 36 36 34 33 31 29
2 1 5 6 7 9 7 6 7 5 3 4 4 4 5 5 5 3 5 9 7 5 6 7 6 6 7 7 8 10 11 9 8 9 6 6 8 8 9 12 14 15 16 17 17 18 18 17 17 16 16 18 22 24 25 27 28 29 30 31 32 32 32 33 33 34 33 34 35 35 34 35 35 35 35 36 37 37 36 36 36 35 34 32 30 29
1 1 4 5 4 5 5 4 2 1 2 4 4 5 6 5 6 6 7 10 9 7 6 5 9 9 7 5 7 10 10 9 7 8 6 2 7 9 11 13 14 15 17 18 18 18 18 18 18 18 16 17 20 23 24 25 27 28 29 30 31 31 32 33 33 33 33 33 33 34 35 35 36 36 35 36 36 37 37 37 36 35 33 32 30 29
4 3 2 1 1 3 4 3 3 2 2 4 3 2 3 3 5 5 5 5 5 6 7 7 8 8 5 4 5 7 9 9 9 9 8 6 2 8 11 11 13 15 16 18 18 17 17 16 16 17 16 17 21 25 26 26 28 30 30 30 31 31 32 34 34 33 33 32 33 34 35 35 36 36 36 36 36 37 37 37 36 35 33 31 31 30
4 2 1 3 3 4 5 6 7 5 2 2 2 3 3 3 4 5 5 3 4 5 3 3 4 5 5 4 3 5 7 10 11 8 7 8 5 5 10 10 12 13 13 14 14 13 14 14 15 17 17 18 22 25 26 27 28 28 30 31 32 32 32 33 34 33 33 33 34 35 36 35 36 36 36 36 36 37 36 36 35 34 33 32 32 31
1 1 1 1 2 4 6 7 9 5 3 1 2 0 1 4 4 6 6 5 6 5 3 3 3 7 5 2 2 5 6 8 10 7 5 7 6 1 9 9 10 11 11 12 12 12 13 14 14 16 18 20 25 29 31 32 31 31 33 34 33 33 33 33 33 33 33 34 35 36 36 36 36 36 36 36 36 36 36 35 35 34 34 34 33 32
2 1 1 1 2 3 8 8 6 4 3 2 5 3 4 6 4 6 8 9 9 6 4 6 7 7 5 4 6 6 4 3 6 6 4 4 5 3 7 10 10 10 10 10 11 11 11 12 12 14 19 24 28 31 33 33 33 33 33 33 33 33 33 32 32 33 34 34 36 37 37 37 37 36 36 36 36 35 35 35 35 35 35 34 33 32
3 1 1 1 2 2 5 7 5 2 2 7 6 5 5 3 3 5 8 8 6 7 5 5 8 7 7 7 8 8 7 3 5 7 4 3 6 8 7 11 11 12 11 10 10 10 10 11 10 12 18 23 26 28 29 30 30 30 31 32 32 33 33 32 31 32 34 35 35 36 37 37 37 37 36 35 35 35 35 34 35 34 34 34 33 33
2 1 2 2 2 2 3 4 2 3 8 10 8 6 4 2 4 8 6 4 4 8 7 4 4 7 10 10 7 6 8 6 3 8 9 9 12 12 10 11 13 14 14 14 14 14 14 15 17 20 24 27 28 28 30 31 31 31 31 32 32 31 31 31 30 31 33 35 35 37 37 37 37 36 36 36 35 34 33 32 33 33 34 34 33 33
4 2 2 2 2 1 2 1 3 4 7 8 4 2 4 4 5 5 3 5 6 7 7 7 9 9 7 7 7 6 7 7 4 7 11 9 10 11 11 12 14 15 15 15 17 20 23 26 28 30 30 29 30 31 32 32 32 32 30 29 29 29 30 30 30 31 32 34 35 37 37 38 38 36 35 35 34 32 32 32 33 34 34 34 33 33
4 4 3 1 0 1 2 2 3 3 4 5 3 3 3 2 3 4 3 4 6 7 8 8 9 11 10 7 7 4 4 3 2 6 9 8 4 6 7 9 11 13 13 14 16 18 23 28 29 31 31 29 30 32 32 32 32 31 29 28 29 29 28 29 30 31 32 34 37 38 38 39 38 37 35 34 34 34 35 35 34 34 35 35 33 33
3 1 3 3 1 1 2 1 1 2 4 5 6 8 6 3 3 2 2 3 6 9 10 9 9 10 9 9 9 4 3 2 5 6 7 8 5 4 6 7 7 9 11 14 16 18 23 28 28 28 28 28 29 30 31 33 33 31 28 28 30 29 28 29 30 32 32 33 35 37 38 38 38 38 38 37 37 38 37 34 33 33 34 34 34 34
3 2 2 2 1 2 2 1 2 3 5 6 7 10 11 8 1 4 2 5 8 10 9 8 10 10 9 9 9 4 3 5 5 6 7 7 6 4 7 7 8 10 11 14 20 22 25 26 25 24 26 28 30 32 34 34 33 30 29 29 29 28 29 29 30 31 31 30 32 33 35 37 39 39 39 39 40 40 37 34 33 33 34 35 34 33
1 1 0 2 3 3 3 2 2 3 4 5 8 11 12 8 2 4 4 6 6 11 10 8 9 10 9 9 7 4 5 7 6 6 5 4 5 6 3 3 6 8 8 12 19 24 23 23 24 26 29 31 32 33 35 35 31 28 28 28 27 27 29 30 29 30 31 30 31 32 33 36 38 40 41 42 42 39 34 34 34 34 36 37 33 31
2 3 2 0 1 2 3 2 2 3 3 3 8 11 9 4 1 3 5 4 4 9 10 10 10 9 9 9 6 4 8 9 5 5 6 4 3 4 6 6 5 5 6 4 3 10 15 19 24 26 26 30 33 34 35 34 30 28 27 27 27 28 29 30 31 32 32 30 29 31 33 35 37 39 39 39 38 35 32 32 34 35 37 36 32 31
1 2 3 3 1 0 1 1 2 3 3 4 8 9 5 2 2 4 4 3 3 5 8 9 9 9 9 10 8 7 8 7 4 6 7 8 7 7 8 8 7 8 9 12 12 10 5 2 12 19 23 27 31 34 35 33 29 27 26 26 27 29 30 30 32 33 33 30 29 29 31 33 34 34 33 33 34 34 31 31 31 33 34 33 31 30
2 0 0 2 2 2 2 2 2 3 5 4 5 5 4 4 4 2 4 5 5 4 6 7 9 10 10 9 9 7 7 7 7 7 8 8 8 7 7 7 6 6 7 10 13 13 12 10 4 6 17 26 31 33 35 34 30 26 26 26 28 30 31 31 32 33 32 32 31 30 29 30 32 32 31 31 31 31 30 30 31 32 34 33 31 30
3 1 2 1 1 1 2 4 4 5 6 5 3 5 6 7 6 3 3 4 5 5 5 5 9 12 12 10 8 5 6 7 8 6 6 6 6 6 7 6 6 7 7 10 12 14 15 12 8 3 4 15 27 32 34 35 33 28 26 27 30 32 31 32 32 32 31 31 31 31 31 31 32 33 32 32 31 30 31 31 32 32 32 31 29 28
1 2 1 2 2 2 4 6 6 5 6 4 3 5 5 6 6 5 3 4 5 6 6 6 8 12 12 10 7 5 5 5 6 6 4 5 5 6 6 5 5 6 7 9 11 13 15 15 14 8 2 7 13 21 27 32 33 31 29 30 33 33 33 33 32 31 30 30 30 32 32 32 31 31 31 32 32 32 32 34 34 33 32 30 29 28
1 1 1 1 1 1 3 6 6 5 4 2 3 5 5 6 7 6 4 5 6 6 7 8 10 11 11 9 6 5 6 5 5 4 4 4 6 5 5 5 4 5 6 8 10 14 15 13 12 11 6 3 8 10 14 20 26 29 31 32 32 32 33 33 31 29 28 29 29 30 31 31 31 30 30 30 30 29 29 31 32 31 30 29 28 27
1 2 3 2 2 2 4 6 5 5 5 2 2 4 5 5 8 8 6 7 7 7 9 10 10 10 10 8 6 5 6 6 4 4 3 3 4 4 5 5 4 5 7 9 12 15 15 13 12 12 11 5 4 9 9 13 19 24 28 30 31 32 32 31 30 29 28 29 29 29 29 31 31 30 30 29 29 28 28 28 29 30 31 33 33 32
1 1 1 1 3 4 5 5 4 5 6 3 3 5 5 4 5 6 7 8 6 6 9 11 10 9 9 9 8 5 5 5 5 4 3 3 4 4 5 5 6 7 9 9 11 13 13 13 14 15 14 12 7 6 7 10 16 21 25 27 28 30 30 29 28 28 27 27 28 27 28 30 31 31 29 28 28 28 30 32 34 34 34 36 37 39
1 2 1 2 3 4 5 4 2 2 5 5 4 6 7 6 4 3 4 6 6 5 5 8 9 10 10 10 9 5 4 5 5 5 4 3 4 5 5 5 6 8 10 11 12 13 14 14 13 13 14 15 15 12 9 8 9 14 21 26 27 28 29 28 27 25 25 25 26 27 28 29 29 28 28 28 28 28 28 30 33 34 33 33 35 37
2 2 1 0 2 5 7 6 2 2 4 5 3 3 5 6 5 4 4 5 6 6 5 4 7 9 11 12 11 5 3 5 5 5 5 5 5 5 6 7 7 6 8 11 12 12 12 13 13 12 11 13 16 18 16 12 8 8 12 19 24 26 27 28 26 23 23 23 25 27 29 29 29 27 27 27 28 28 27 26 27 29 31 32 32 33
Wind_Direction
185 195 216 210 224 228 228 226 228 239 244 257 265 257 259 261 266 254 236 229 214 213 216 219 236 239 231 223 218 231 232 210 222 216 176 179 184 184 190 185 180 185 189 180 169 168 171 172 173 173 173 173 173 175 176 176 179 182 184 185 185 187 188 189 189 188 185 183 183 183 182 180 183 187 188 190 195 200 203 204 208 209 207 206 205 201
255 204 231 227 227 232 240 249 251 254 255 259 264 264 263 256 269 280 258 237 217 214 216 214 230 237 231 226 220 220 227 230 227 217 192 183 183 186 195 192 185 184 176 161 162 170 171 170 170 171 171 172 173 176 179 180 182 185 186 186 186 186 187 190 190 189 188 188 187 184 182 182 182 185 186 187 191 195 197 200 204 205 204 203 201 198
286 240 239 237 233 232 238 246 250 254 251 249 254 259 264 261 274 291 283 250 223 220 225 215 225 235 229 223 224 220 221 230 229 214 197 185 182 185 192 194 183 163 155 161 166 170 171 170 170 171 173 175 176 178 181 183 185 186 186 186 186 186 188 191 191 190 190 192 192 189 185 184 183 182 186 188 187 190 193 196 200 203 202 199 197 194
242 245 241 239 235 233 238 240 242 252 252 242 242 245 252 256 254 272 286 267 233 226 230 224 228 235 231 223 225 227 222 227 229 216 203 188 183 188 189 185 174 164 165 168 169 170 171 171 171 174 177 177 176 178 183 185 186 186 184 185 187 188 190 191 192 192 192 192 194 193 189 188 184 178 180 182 182 185 189 192 197 200 197 193 192 189
234 244 242 235 225 223 232 238 236 240 248 244 240 238 244 249 245 243 269 289 281 240 227 228 243 242 226 218 221 229 225 225 225 217 212 203 188 184 185 183 176 170 168 167 172 175 172 172 177 179 178 176 176 181 185 187 187 186 185 187 189 189 191 192 192 192 192 191 191 189 183 180 174 169 170 172 174 180 186 189 191 192 189 187 185 183
252 253 248 242 233 222 226 233 231 226 236 246 240 237 241 246 248 248 258 278 309 266 224 213 233 244 215 209 214 217 220 225 224 214 212 216 195 175 179 182 178 177 175 171 172 175 175 178 181 181 179 178 180 185 187 188 187 186 186 189 190 190 191 191 192 193 192 192 190 184 176 170 164 162 167 171 172 176 181 184 184 183 184 183 180 179
250 252 249 251 245 233 231 232 229 221 228 245 232 233 238 240 245 247 252 259 258 272 245 217 224 236 222 213 211 209 215 220 221 212 208 210 197 176 179 179 174 177 181 176 175 176 177 179 179 181 183 183 185 188 189 187 186 185 186 189 190 190 191 191 192 193 193 193 191 186 180 175 170 166 170 176 177 178 180 180 180 180 182 184 182 180
238 257 255 258 258 246 238 237 231 218 222 244 230 227 234 235 239 240 245 250 240 270 283 262 241 234 228 224 211 205 213 220 220 218 212 205 196 184 179 176 173 176 178 177 180 180 180 181 181 185 187 187 187 188 187 187 185 184 186 188 189 191 191 192 193 193 195 194 190 187 183 179 176 174 173 177 179 179 180 179 179 179 182 186 187 186
240 257 253 256 264 258 243 240 231 217 222 240 232 229 234 238 243 242 239 244 244 255 276 278 267 241 229 227 215 203 207 218 221 221 218 205 194 184 177 177 177 179 179 178 180 183 184 185 186 188 188 187 186 186 188 188 184 183 186 187 188 191 192 192 194 194 196 197 192 187 183 179 178 177 176 178 179 180 181 182 181 182 184 187 191 192
226 246 260 264 268 271 267 257 237 219 223 235 233 234 239 240 246 248 239 238 240 239 251 261 263 252 238 217 208 205 206 213 216 220 219 202 188 184 180 182 180 180 183 182 181 182 184 188 191 190 186 183 185 187 190 187 182 182 184 185 187 191 192 193 194 195 196 196 194 190 186 181 178 177 177 177 178 181 184 184 184 185 185 187 191 193
248 265 279 268 253 260 272 277 268 240 225 227 229 233 245 245 245 252 243 229 235 234 239 248 249 251 256 222 201 206 211 211 209 216 218 197 186 187 187 185 180 178 183 186 185 185 186 189 190 186 179 179 184 187 188 184 181 182 183 184 187 190 192 193 194 196 196 195 195 193 189 185 181 179 178 177 178 182 185 186 186 185 186 188 191 192
264 262 265 253 244 254 270 283 287 267 235 220 219 216 231 248 248 256 244 217 225 235 230 238 246 246 249 243 214 214 217 213 204 199 203 201 193 190 189 188 183 180 183 184 186 187 185 184 181 177 176 179 181 185 186 183 181 182 183 184 186 190 192 193 194 195 195 194 195 195 192 189 186 184 182 181 182 184 186 187 185 184 185 187 190 192
265 245 250 253 247 248 264 280 286 277 241 214 211 196 202 223 229 238 241 220 214 235 233 230 239 244 246 246 223 216 216 211 205 198 195 195 194 193 191 188 186 184 184 185 184 184 181 177 175 176 177 179 182 186 185 182 181 181 183 184 186 189 192 193 193 194 193 194 195 194 192 190 189 188 187 186 186 189 190 188 185 184 185 185 186 190
274 266 242 239 247 227 226 248 266 274 238 202 201 193 191 198 209 224 238 230 208 229 239 233 233 247 257 254 224 214 209 200 203 205 199 195 192 193 193 189 187 186 184 186 185 182 180 179 180 180 179 182 186 187 183 180 181 181 182 185 187 190 191 192 192 192 193 194 195 194 192 192 191 190 190 189 190 190 190 188 187 187 187 187 188 189
245 281 231 211 217 192 206 222 228 247 259 225 201 194 198 196 206 223 223 220 206 219 236 232 226 223 231 239 221 211 208 199 200 203 202 207 201 194 193 187 183 185 185 186 186 183 181 181 182 183 185 186 185 182 180 180 181 181 184 186 188 190 191 191 191 191 192 193 193 192 192 193 192 192 191 190 191 189 188 188 189 189 189 190 190 190
213 258 244 220 227 219 237 243 235 246 261 253 216 198 206 197 201 240 228 210 199 214 230 225 219 219 227 251 238 213 206 202 206 205 201 211 212 202 199 189 180 183 186 186 185 183 184 184 185 186 187 186 181 178 179 181 181 183 186 189 191 191 190 190 190 190 192 193 191 191 192 192 192 192 190 189 189 189 189 191 191 192 191 191 192 191
202 256 279 280 270 258 248 258 263 253 250 274 244 217 224 200 189 241 253 249 190 217 232 219 229 252 249 266 269 224 204 202 209 213 207 207 208 203 204 196 183 183 184 183 182 182 184 187 188 188 185 181 178 178 181 182 184 186 187 189 191 190 188 190 190 190 191 191 190 190 192 193 192 192 191 190 190 190 192 194 196 195 193 194 195 193
180 263 286 279 274 276 263 268 273 252 236 248 248 255 275 192 169 202 251 281 289 228 241 217 221 240 232 250 271 220 202 206 210 215 213 209 204 200 202 195 182 182 184 182 180 181 185 189 189 187 185 182 180 180 182 184 186 188 189 190 189 187 188 190 190 189 189 189 189 190 192 194 194 195 195 194 193 193 194 195 196 196 194 197 198 194
175 265 285 257 250 278 304 290 284 263 231 222 239 327 34 158 185 164 206 250 233 249 277 221 211 220 215 235 256 224 204 209 211 211 212 210 204 199 199 191 180 180 183 179 177 182 187 190 189 186 184 182 180 181 183 186 186 187 190 191 190 189 190 190 189 188 188 189 189 190 193 194 195 195 196 196 196 196 195 195 195 195 196 197 196 194
113 142 288 280 255 299 312 254 247 279 257 227 276 331 122 190 206 182 210 238 206 226 296 244 213 223 220 215 237 236 218 213 211 208 210 207 200 196 194 188 182 180 181 177 175 183 189 190 190 187 181 178 179 182 184 184 184 186 189 190 190 190 189 188 188 187 187 189 189 189 192 193 193 194 195 197 197 196 195 194 194 195 196 194 194 194
69 110 258 292 333 10 290 215 187 214 214 170 239 234 190 206 254 242 237 235 215 186 256 269 250 246 239 209 225 242 233 214 205 198 204 201 190 189 187 184 183 180 178 176 176 184 189 189 186 183 181 179 178 180 182 183 185 186 187 187 188 188 187 187 187 187 188 189 189 188 189 191 191 191 193 195 195 194 193 194 195 196 195 193 193 194
123 147 225 298 324 324 252 264 277 252 215 186 201 201 181 192 235 273 264 232 232 207 179 260 273 266 249 202 211 245 245 228 215 196 199 198 183 183 185 183 183 178 175 175 179 185 186 182 178 177 179 178 176 178 181 183 185 185 185 186 187 187 187 187 186 187 188 188 188 188 188 189 189 189 191 191 191 191 191 193 195 195 194 193 193 194
123 119 163 281 273 258 265 275 285 285 270 238 220 186 151 185 211 246 266 247 249 229 190 243 279 276 259 210 204 231 241 239 227 199 201 215 195 182 183 183 179 174 175 177 180 184 181 175 174 175 176 176 177 180 181 182 184 186 185 185 186 188 189 187 187 187 187 186 187 188 188 189 188 188 189 189 189 190 191 193 194 194 194 192 192 194
86 106 211 280 280 271 275 279 277 279 264 205 243 154 119 221 237 233 251 248 257 250 173 228 276 270 277 304 233 231 233 243 239 203 206 226 216 187 181 180 177 175 176 178 179 178 173 169 171 174 176 177 179 180 180 183 185 185 185 185 187 190 190 188 187 186 185 185 186 187 188 188 187 187 187 187 188 189 191 193 193 193 193 192 191 192
142 153 180 282 308 311 290 278 277 295 351 159 231 191 165 228 263 288 295 282 268 251 163 185 261 255 275 344 335 271 249 249 255 226 209 219 215 196 185 179 176 175 174 174 172 168 167 169 173 177 178 179 179 180 181 183 184 183 184 185 187 189 189 188 187 185 184 184 185 186 187 186 186 186 186 186 187 189 191 192 191 191 192 191 191 192
157 173 170 199 180 142 158 181 201 260 313 285 242 192 215 256 260 259 304 294 275 269 201 207 243 269 297 325 334 322 301 270 266 247 214 220 214 194 185 176 170 168 168 167 167 168 170 174 176 178 178 178 179 180 180 180 182 183 185 187 187 187 187 186 185 183 183 183 184 186 186 186 186 186 186 186 187 188 189 190 190 189 191 192 192 193
133 186 201 208 195 170 178 205 205 191 236 287 300 335 303 280 270 244 110 278 257 250 252 236 233 277 304 316 328 329 325 306 283 247 202 207 214 192 176 166 163 163 165 165 166 169 171 173 176 178 177 178 179 179 179 180 181 183 185 187 187 186 184 184 183 181 182 182 183 186 187 187 187 187 187 186 186 186 187 188 189 189 190 193 193 193
165 211 216 217 229 229 211 221 229 206 208 243 265 276 251 266 275 252 226 245 226 202 246 255 257 286 292 304 325 324 317 319 313 277 213 188 190 184 165 158 160 161 162 165 167 169 170 173 177 178 177 177 178 178 179 180 181 183 184 185 185 185 184 183 182 181 181 181 182 185 187 187 187 187 186 184 184 185 186 186 188 189 190 192 193 195
164 219 210 201 226 240 231 233 236 219 232 240 227 233 235 245 262 246 247 251 228 197 229 254 284 289 273 289 313 310 304 309 310 297 269 180 160 152 148 153 157 159 162 167 170 170 171 174 175 177 178 176 175 176 177 179 181 182 183 183 184 185 184 183 182 181 182 182 183 185 186 185 185 185 183 182 182 183 184 185 186 189 191 192 195 197
220 286 219 196 218 249 247 253 251 70 323 273 229 222 227 238 250 243 251 256 239 218 221 257 291 288 263 269 299 299 299 308 309 311 329 81 139 146 149 153 158 162 166 169 173 174 174 175 176 176 175 174 175 175 174 176 179 181 182 183 183 184 184 183 182 182 182 182 182 183 184 184 183 182 182 181 181 181 183 183 185 188 190 193 195 196
228 244 239 149 3 308 301 322 356 10 270 245 235 240 260 289 290 268 255 262 261 244 232 242 272 280 261 247 274 289 302 325 332 336 357 13 99 141 144 152 159 164 171 173 175 176 175 174 174 173 173 177 177 175 175 177 179 180 182 183 183 183 183 183 183 183 183 182 180 181 182 183 181 180 181 181 180 181 181 182 184 187 190 192 194 195
217 206 35 40 20 302 303 338 330 309 251 223 315 5 356 328 301 277 268 272 279 263 230 224 256 270 280 275 273 295 318 334 332 337 5 0 353 122 132 146 159 164 171 173 171 170 170 171 173 175 178 179 175 175 177 178 178 179 181 183 185 184 182 182 184 184 183 182 180 180 181 182 180 179 180 181 181 181 181 183 185 187 190 191 193 194
220 124 98 58 29 290 298 322 314 318 53 24 285 82 327 292 276 283 292 286 262 237 148 113 245 255 259 242 265 307 329 328 316 321 6 357 332 140 134 137 152 159 163 165 167 169 172 175 179 180 180 178 177 179 181 178 178 181 183 184 184 183 182 183 184 183 182 182 180 180 180 180 179 179 180 181 182 181 181 183 185 188 189 191 192 194
323 42 140 123 93 287 303 321 333 29 74 233 229 206 272 277 261 274 284 278 273 265 215 184 199 235 248 195 200 227 241 269 284 295 337 354 316 258 158 145 150 156 159 163 167 171 175 178 183 184 183 183 183 183 182 181 181 183 182 181 181 182 182 183 184 183 181 181 180 179 179 179 178 178 179 181 181 180 180 183 185 187 188 189 190 191
312 16 106 58 76 283 320 351 15 42 242 258 275 293 282 236 215 278 272 256 282 330 319 221 191 209 230 218 209 200 185 202 276 282 276 230 247 247 192 162 161 158 160 167 170 174 180 179 179 183 187 189 187 183 182 183 183 181 179 179 179 181 182 183 183 182 181 181 180 179 179 179 178 177 178 179 179 179 181 183 184 185 186 188 190 192
218 151 120 44 358 329 7 20 358 269 281 296 311 313 311 39 19 351 333 286 322 5 353 306 253 231 219 213 219 191 165 162 228 267 254 219 218 227 201 174 172 170 170 175 176 180 184 184 184 187 189 189 186 183 183 184 182 178 178 179 178 179 181 181 182 183 183 181 180 179 179 178 177 177 177 177 177 178 181 182 183 184 187 189 192 193
169 152 101 45 352 14 44 305 270 295 314 319 341 33 33 26 354 339 317 284 312 354 1 346 335 317 273 224 218 196 160 144 161 250 261 241 208 206 202 186 177 176 179 181 183 186 187 188 190 190 189 186 184 184 184 183 179 176 176 177 178 179 180 180 183 185 184 181 179 179 180 179 178 177 176 175 174 176 182 185 185 186 188 190 190 191
168 175 149 117 24 73 69 308 311 343 317 279 278 329 28 38 284 270 237 264 306 344 355 351 342 332 324 293 255 215 138 120 211 248 265 270 215 181 204 208 186 181 185 186 187 187 188 191 193 191 187 184 184 186 183 179 176 174 173 176 178 180 181 182 185 187 186 183 181 180 182 181 177 174 174 174 174 180 187 189 188 187 189 190 190 191
68 88 114 106 112 110 96 96 305 297 258 255 292 318 328 309 257 221 166 263 303 337 351 349 338 333 332 321 304 280 150 190 263 257 254 269 268 180 191 219 208 196 196 191 188 188 190 193 192 187 184 182 184 184 180 176 174 172 173 178 180 181 183 187 188 188 187 186 183 181 181 179 176 175 175 176 179 187 192 190 188 187 187 191 195 195
83 25 53 87 162 163 136 164 228 243 259 288 315 317 311 306 299 116 153 253 295 326 339 342 333 324 326 333 331 315 200 199 234 245 232 244 262 214 185 204 216 211 203 196 194 193 192 189 183 178 181 184 183 180 177 175 174 173 176 179 180 183 187 189 189 186 186 186 183 180 179 179 179 177 176 180 186 191 192 189 187 185 186 192 198 195
105 331 248 158 174 168 164 210 261 258 263 293 308 305 304 311 61 125 197 239 289 316 324 330 321 314 325 338 340 321 264 240 243 267 267 255 269 266 239 218 227 223 215 205 200 192 184 179 179 181 184 184 181 177 175 173 173 175 177 178 182 187 189 188 187 184 184 184 183 179 179 182 181 178 179 187 191 190 188 186 185 184 187 193 196 191
352 321 320 28 175 170 173 210 277 283 252 277 302 304 315 336 145 199 228 246 292 306 315 324 314 312 329 328 320 309 288 276 284 330 352 11 356 345 17 34 31 14 9 2 205 186 178 178 181 182 183 181 177 174 174 174 174 175 176 179 184 187 186 185 184 183 182 182 180 179 180 183 183 180 183 188 189 184 182 185 185 185 188 191 191 188
317 304 332 335 283 330 3 338 329 302 291 317 316 313 340 22 246 253 285 307 309 305 314 320 313 317 331 324 319 324 311 310 7 41 34 32 41 48 45 50 61 55 46 45 44 42 43 169 185 179 176 177 176 175 174 174 174 174 176 180 183 183 182 182 181 180 180 179 177 178 180 182 181 181 183 186 185 182 180 181 182 183 186 188 188 187
31 70 314 324 333 28 353 306 263 259 271 294 306 300 319 322 293 307 334 320 318 329 326 319 315 321 327 318 314 326 333 341 10 43 52 40 36 49 51 48 57 68 71 70 72 76 65 38 7 192 179 175 175 176 177 175 173 173 176 178 178 178 179 179 178 178 178 176 175 177 179 178 178 180 186 188 185 180 177 178 180 182 186 190 189 186
27 46 196 237 296 190 222 238 241 258 269 275 270 274 297 311 310 324 321 295 304 327 328 318 318 323 327 318 308 332 1 352 351 20 65 68 46 45 50 43 46 64 75 77 86 101 103 89 67 20 237 193 181 178 179 177 173 171 172 173 174 176 176 174 174 175 175 175 175 176 176 176 178 183 188 189 185 181 178 179 180 182 187 190 189 186
332 354 209 198 228 238 242 241 238 250 262 263 266 276 288 304 313 321 308 286 306 321 314 314 323 327 326 317 309 337 12 9 1 10 46 77 66 55 55 50 53 73 86 91 101 112 116 119 120 113 319 256 208 187 183 181 175 169 168 170 173 175 173 170 170 172 172 174 176 176 175 176 179 182 185 186 187 187 184 183 183 184 186 187 187 187
286 353 323 251 234 273 270 249 242 260 282 285 301 309 320 325 321 322 312 297 306 312 310 322 335 331 324 315 310 332 358 24 40 26 23 56 66 66 64 58 58 80 95 108 123 124 119 116 121 125 129 246 257 229 199 185 176 169 167 168 170 170 169 167 167 167 169 172 174 175 174 174 176 179 182 185 188 188 186 186 186 185 184 185 185 186
301 10 337 302 256 247 264 266 273 296 300 279 273 302 326 329 318 321 317 297 298 317 328 336 340 331 324 317 307 323 355 12 31 40 43 60 71 78 79 73 74 86 98 113 126 127 120 112 113 123 126 132 245 249 218 187 177 171 166 165 167 167 165 164 165 165 166 169 169 170 171 173 176 178 181 183 186 187 186 186 186 186 190 192 191 189
262 308 303 318 314 291 280 292 317 319 311 315 319 317 321 311 308 319 309 293 308 345 344 335 330 328 332 327 312 326 12 6 351 4 35 69 79 84 90 96 94 83 78 89 110 120 120 118 123 131 130 125 142 197 203 187 182 175 165 162 164 163 161 160 162 162 162 164 165 166 170 175 178 180 180 182 185 188 191 193 193 195 198 199 199 200
231 255 236 41 349 305 290 304 333 304 297 305 320 322 313 294 289 306 297 300 327 343 326 323 327 330 340 337 322 327 27 19 355 355 5 23 51 63 73 87 91 86 81 83 93 106 118 128 137 138 132 131 142 160 175 187 189 176 164 161 163 162 159 158 158 159 160 162 165 167 171 174 178 181 182 182 183 187 193 197 200 201 202 203 205 208
185 228 263 123 234 259 275 288 266 203 264 280 280 281 276 270 282 312 332 328 314 294 290 326 336 338 345 338 321 314 35 38 26 28 22 16 33 53 64 72 76 75 80 87 91 95 110 131 144 139 125 125 138 149 156 158 147 135 143 153 159 160 159 157 155 155 158 161 165 170 173 176 179 181 181 183 185 187 190 194 200 205 207 209 212 214
Height
770 777 781 781 780 777 774 773 772 769 769 770 771 772 770 769 763 751 744 736 731 740 744 742 741 736 735 735 732 730 729 732 735 736 741 743 743 744 745 745 745 746 744 744 749 754 756 759 761 764 766 770 774 776 778 779 781 782 784 787 790 793 796 799 801 804 807 809 810 812 814 815 816 817 818 820 822 823 824 826 827 828 828 829 829 830
772 781 781 776 775 773 773 773 772 772 772 773 773 773 770 769 765 753 745 737 730 738 741 738 738 733 731 733 730 728 729 731 731 734 739 741 741 743 744 744 743 743 743 745 750 753 755 758 760 763 765 766 769 772 774 775 777 779 781 784 787 790 793 795 798 801 804 806 808 810 811 813 814 816 817 819 821 822 824 825 826 827 828 828 829 829
780 782 777 770 770 771 772 772 773 773 773 774 774 774 774 768 764 757 748 738 731 737 740 736 735 730 726 729 728 726 727 727 726 728 733 736 738 740 742 744 745 746 748 748 749 751 753 756 757 760 762 763 764 768 771 773 775 777 780 783 786 788 791 793 796 798 802 805 807 810 811 812 813 815 817 818 820 822 823 825 826 826 827 828 828 829
785 779 770 768 769 771 772 771 772 773 773 774 773 775 774 767 767 765 753 741 733 733 735 735 734 729 726 728 727 725 723 722 722 723 726 728 732 734 736 739 742 746 749 750 750 750 752 754 756 758 759 761 763 767 770 771 773 776 779 782 784 787 789 791 794 797 800 804 807 809 811 812 813 814 816 818 820 821 822 824 825 825 826 827 828 828
780 770 764 766 768 769 772 771 771 775 776 773 770 771 770 764 765 765 755 746 741 734 728 733 742 736 728 731 729 725 723 721 719 721 725 725 726 729 731 734 737 740 742 746 749 750 751 752 753 754 756 758 760 763 765 767 769 773 776 779 782 784 787 790 793 796 799 802 805 807 809 811 812 814 815 817 818 819 821 822 823 825 826 827 828 828
774 765 763 766 766 766 769 769 768 772 775 773 767 763 763 761 760 760 757 755 759 753 731 732 752 744 728 729 728 723 724 722 719 721 724 724 724 727 730 732 736 737 737 738 741 744 746 747 749 752 754 756 757 758 760 762 765 770 773 777 780 782 785 788 791 794 797 799 802 804 806 807 809 811 813 814 815 817 819 821 822 824 825 826 827 827
767 761 762 765 765 765 766 766 763 765 772 773 763 756 756 757 758 759 758 761 769 764 736 727 746 746 732 728 724 721 723 722 720 721 721 721 722 725 726 728 732 736 737 737 737 739 741 743 746 749 751 751 752 754 758 761 763 767 771 774 778 781 783 786 789 792 795 797 800 801 803 805 806 809 811 813 815 816 818 820 822 823 825 826 827 827
761 761 763 764 764 765 765 765 759 759 769 768 755 751 753 753 755 756 757 762 763 758 745 733 736 742 740 730 720 718 722 721 719 719 718 718 718 720 721 724 727 730 733 735 737 738 738 739 741 744 745 746 748 752 757 759 761 764 768 771 775 779 782 784 787 790 793 795 797 800 802 804 805 807 810 812 814 816 818 819 821 823 824 825 826 827
760 764 764 763 765 765 762 759 754 755 762 758 747 747 749 749 751 750 753 758 756 759 761 746 737 744 741 726 716 716 720 721 718 714 713 713 714 716 719 721 722 723 725 727 731 733 734 735 736 737 739 742 746 751 753 755 758 761 765 769 773 776 779 782 785 788 791 793 796 798 800 803 805 807 809 812 814 816 817 819 821 822 823 824 825 826
760 760 760 763 766 765 759 753 749 752 754 748 744 745 745 745 746 746 750 753 754 764 767 750 742 751 743 722 716 719 717 716 713 707 705 708 712 714 716 718 718 719 722 722 723 726 728 730 731 732 736 740 744 748 752 754 757 760 763 767 770 773 776 779 783 786 789 792 794 796 798 801 804 806 809 811 813 815 816 818 820 821 822 823 824 825
758 756 757 760 761 759 756 752 749 748 745 741 743 746 748 747 745 746 746 746 755 764 759 745 738 748 749 726 713 713 707 702 703 705 704 706 708 710 713 714 714 716 719 720 721 721 723 725 728 733 737 740 744 748 753 755 755 757 760 764 767 770 774 777 780 783 786 789 792 794 796 798 801 804 807 810 811 813 815 816 818 820 821 822 823 824
758 759 757 755 754 753 753 753 749 744 739 739 743 747 753 754 751 752 749 748 761 762 748 737 732 741 750 730 709 702 693 689 695 701 703 703 704 707 709 711 711 712 714 716 719 720 722 727 731 735 738 741 745 748 750 752 753 755 758 761 765 768 771 774 777 781 784 787 789 791 794 797 799 802 804 807 809 811 813 814 816 818 820 821 822 823
760 758 755 752 750 750 754 757 752 744 739 739 743 748 759 763 760 763 759 753 758 752 737 731 732 737 737 719 703 695 689 686 687 689 693 696 699 702 704 706 707 709 711 712 715 717 721 726 729 732 736 739 742 743 745 748 750 753 756 758 762 765 768 771 774 778 781 784 787 789 792 795 797 800 802 804 807 808 810 812 814 816 818 819 820 821
765 757 752 753 750 746 752 757 756 749 739 739 743 748 758 764 766 769 762 753 752 745 729 726 733 737 728 708 694 688 685 682 680 680 684 687 692 695 696 699 702 705 708 710 711 713 717 721 724 727 731 734 736 738 741 745 747 751 754 756 759 762 765 769 772 775 778 781 784 787 790 793 796 798 801 803 804 807 809 811 813 814 816 817 818 819
771 763 750 749 747 742 744 747 748 744 739 737 733 738 748 751 756 760 755 750 748 742 730 727 734 735 724 703 684 678 677 674 674 675 678 680 682 686 688 692 698 701 704 706 707 709 712 715 719 723 727 728 730 734 738 742 745 748 751 754 756 759 762 766 769 772 775 779 782 785 788 791 794 797 799 801 803 805 807 809 811 813 815 816 817 818
768 762 745 741 740 738 741 738 735 738 742 735 725 732 741 737 738 743 741 735 734 737 732 727 725 715 702 689 675 673 674 670 671 671 674 679 678 680 685 687 693 697 699 702 704 706 708 710 714 718 722 725 727 731 735 739 742 745 748 751 753 756 760 763 767 770 773 777 780 783 786 789 792 795 798 800 803 804 806 808 810 812 814 815 817 818
762 757 741 739 738 735 739 736 732 737 742 737 731 733 729 720 726 737 738 729 730 741 733 721 718 706 696 689 675 673 674 669 670 669 670 676 677 679 682 682 687 692 694 697 699 702 705 708 711 714 717 721 723 727 731 734 738 740 743 747 751 755 759 762 765 768 771 775 778 781 785 788 791 793 796 798 801 803 804 806 809 811 813 815 816 817
758 755 742 740 740 733 731 732 731 730 733 737 736 730 720 716 722 732 741 740 742 748 731 716 719 713 709 701 679 672 676 670 668 670 669 671 675 678 678 678 684 686 689 693 695 698 701 704 708 711 713 716 719 723 727 732 735 738 741 745 749 752 756 759 762 765 769 773 776 780 783 786 789 791 794 796 799 801 802 805 807 810 812 814 815 815
754 756 744 737 739 734 730 732 732 727 724 728 728 723 726 734 735 733 742 747 749 751 733 716 715 711 708 701 680 673 677 671 666 667 667 668 671 675 675 676 681 683 686 690 694 698 700 702 705 707 710 714 718 723 727 730 734 737 741 744 747 750 753 757 761 764 768 771 774 778 781 784 787 790 792 795 797 799 801 803 805 808 810 812 813 814
753 759 749 737 736 735 732 734 736 731 724 723 724 724 728 736 738 735 735 736 741 748 740 724 717 710 698 687 677 671 670 668 667 665 665 664 665 669 671 672 677 680 683 687 691 695 696 698 701 704 707 710 716 723 727 730 733 736 739 743 746 750 753 757 760 763 767 770 773 776 780 783 785 788 791 793 795 797 799 802 804 806 809 810 812 813
755 762 753 740 738 737 734 732 732 731 729 726 728 732 731 730 731 732 729 724 729 741 743 735 723 706 686 675 671 665 662 663 663 662 661 661 662 665 666 667 671 675 679 682 686 689 691 694 699 703 707 710 715 721 726 729 732 734 737 741 744 748 751 754 757 761 764 768 771 774 778 781 784 786 789 791 794 796 798 800 803 805 807 809 810 812
753 761 757 749 746 742 735 729 724 726 727 726 727 729 730 729 730 736 736 725 719 727 734 734 726 700 673 667 666 661 659 658 655 656 656 656 660 662 662 662 665 669 674 678 681 684 687 692 698 703 708 712 716 720 724 726 730 733 736 739 742 746 748 751 754 758 762 765 769 772 775 779 782 784 787 790 792 794 796 799 801 803 805 807 809 811
749 760 763 758 751 743 735 727 724 725 724 723 724 722 724 726 728 737 742 731 719 719 718 725 728 700 665 658 661 658 657 655 651 652 652 650 653 657 658 660 662 665 670 673 677 680 684 690 696 702 706 710 714 717 720 724 727 731 733 736 740 743 746 749 752 756 759 763 767 770 774 777 780 783 785 788 790 792 795 797 799 802 803 805 808 810
750 760 764 760 750 740 732 727 725 724 722 723 723 722 724 726 725 729 733 729 724 721 719 728 732 699 663 659 661 655 653 653 651 650 648 647 649 652 655 656 659 664 666 670 674 678 683 689 695 700 703 706 710 713 717 720 723 728 731 734 737 740 744 747 750 754 757 761 765 768 771 774 777 780 783 785 788 790 793 796 798 800 802 804 806 808
753 760 765 764 752 738 733 732 731 726 723 723 723 722 723 722 723 726 726 728 728 722 721 733 729 694 666 666 666 659 654 651 649 649 646 645 647 649 651 652 655 661 664 668 674 678 684 689 693 696 699 702 707 710 713 718 721 725 729 732 735 738 742 745 748 752 755 759 763 766 769 772 775 778 780 783 785 788 791 794 796 798 800 802 805 807
751 759 763 760 750 740 738 738 735 732 728 725 720 719 719 718 722 726 728 734 734 722 718 724 716 690 672 671 669 665 662 651 644 647 646 645 645 645 647 650 653 658 663 667 673 677 682 685 689 692 695 698 703 707 711 716 720 723 726 730 733 736 740 744 746 750 753 756 760 763 766 769 772 775 777 780 783 786 789 792 794 797 799 801 803 805
750 756 756 751 743 738 736 733 731 732 732 728 722 719 719 718 719 722 730 737 732 724 720 713 701 692 684 677 671 669 667 655 646 646 644 643 646 644 644 648 651 656 661 665 669 675 679 683 686 689 692 696 701 705 709 712 716 719 723 727 731 735 738 742 744 747 750 753 756 760 763 766 769 772 775 777 780 784 787 790 792 795 797 800 802 804
744 748 749 749 742 734 730 727 726 727 727 726 723 720 719 720 719 722 729 730 723 722 719 703 695 697 690 679 674 672 671 663 653 649 644 640 644 645 645 648 651 655 660 664 668 673 677 681 684 687 691 695 700 704 707 710 713 716 720 724 729 733 736 739 742 745 748 750 753 757 760 764 767 770 773 776 779 782 785 788 791 794 796 798 800 802
734 737 739 744 741 731 727 725 721 721 721 719 718 718 717 718 719 721 721 717 712 713 708 694 693 698 689 679 675 673 674 669 658 653 647 640 642 646 647 649 653 657 661 664 668 670 673 678 681 686 690 694 699 703 705 709 712 715 719 723 726 730 733 736 740 742 745 748 750 754 758 762 765 768 771 774 777 780 783 786 789 792 795 797 799 801
727 730 730 733 731 725 724 722 718 719 720 718 716 717 717 716 717 718 714 708 703 700 695 689 692 693 685 678 675 673 674 670 660 655 649 644 645 647 648 651 654 657 660 663 666 668 670 675 678 683 689 693 697 700 703 707 710 713 717 720 724 727 730 734 737 740 743 745 748 752 756 760 763 766 770 772 775 779 782 785 788 791 793 796 798 800
722 725 724 724 723 721 720 719 719 721 723 720 716 716 716 715 714 712 706 699 698 694 687 687 694 692 680 674 675 677 675 668 661 656 651 649 650 648 649 653 655 657 660 661 664 667 669 674 678 682 687 690 692 696 699 703 706 710 714 717 720 724 727 731 734 737 740 743 746 750 754 757 761 764 768 771 774 777 780 783 786 789 792 794 797 799
720 722 722 722 723 721 718 719 721 721 718 715 713 713 715 715 713 709 703 699 700 697 689 693 700 691 676 671 673 676 676 670 664 658 653 654 655 653 652 655 656 658 661 663 665 669 672 675 679 681 683 686 690 694 697 700 704 707 710 713 717 720 724 727 730 734 737 740 744 747 751 755 759 762 766 769 772 775 779 781 784 787 790 792 795 798
719 720 721 723 726 723 719 720 720 716 714 714 713 713 715 714 710 707 702 696 695 695 693 697 698 684 673 672 671 672 675 672 664 658 655 656 659 658 655 656 659 659 661 664 666 669 672 674 676 678 680 683 687 689 692 695 699 702 705 708 713 717 720 724 727 731 734 738 741 744 748 753 756 760 763 767 770 774 777 779 782 785 788 790 793 796
719 721 721 723 727 726 721 718 714 714 717 716 711 709 711 710 709 708 703 694 689 688 685 683 681 676 673 673 670 670 673 670 665 660 656 657 663 664 658 657 659 661 662 665 666 668 670 673 675 678 680 681 683 685 689 692 695 698 702 706 710 713 717 721 724 728 731 735 738 741 745 750 754 757 761 765 769 772 775 778 780 783 786 788 791 794
720 721 722 725 728 726 723 719 716 717 717 710 704 705 704 703 704 702 697 692 691 689 683 676 672 669 668 667 666 667 667 667 667 663 658 661 667 667 662 658 658 660 662 665 667 669 670 672 675 678 680 682 684 686 689 692 695 698 702 705 708 711 714 718 722 725 729 732 735 739 743 747 751 755 759 763 767 770 773 776 778 781 784 787 790 792
719 720 722 727 730 727 728 732 728 721 712 703 701 702 699 700 703 700 695 692 691 691 688 684 676 668 663 660 660 664 665 667 670 667 662 664 666 663 660 657 655 657 659 660 663 666 667 669 671 673 676 679 682 684 687 689 693 697 700 703 707 710 713 717 721 724 726 729 732 737 740 744 748 752 756 760 764 768 771 774 777 780 783 786 788 790
715 719 721 726 732 731 733 736 731 722 713 704 700 702 703 706 708 708 707 699 690 690 691 688 682 675 667 659 656 660 665 669 674 671 662 659 658 656 655 652 651 652 654 655 657 658 661 663 665 668 671 674 678 681 683 687 691 695 699 703 706 709 712 716 719 722 724 727 730 734 738 742 746 750 754 758 761 765 769 771 773 776 780 783 786 788
710 716 718 723 732 736 735 734 731 728 721 709 704 704 707 708 707 709 712 703 690 688 690 688 685 680 674 665 658 657 661 666 671 668 657 652 652 652 653 651 649 650 651 652 654 656 659 661 662 665 669 672 676 679 682 686 690 694 698 702 705 708 711 714 717 720 723 725 728 732 737 740 744 747 752 756 758 762 764 766 769 772 777 781 784 786
712 716 717 722 732 735 734 735 736 733 721 710 707 706 704 708 709 710 713 705 691 688 690 689 687 682 677 673 666 660 661 666 668 661 653 649 647 648 651 652 651 650 650 650 653 654 656 658 661 665 669 672 675 678 682 686 689 693 697 700 703 707 709 712 714 718 721 724 727 731 735 739 742 744 748 751 754 757 760 763 767 771 775 779 781 783
717 720 719 722 728 731 731 733 734 728 717 709 707 705 701 703 705 710 715 708 695 691 691 690 689 684 678 674 669 665 664 663 660 654 648 647 645 645 647 649 649 649 648 649 651 652 654 657 660 664 668 670 672 676 680 685 688 691 694 698 701 704 706 710 713 717 722 726 728 731 735 738 740 742 745 748 750 752 756 761 765 769 773 777 778 780
716 719 720 721 724 727 731 732 728 722 715 709 707 703 700 699 699 706 713 709 700 695 693 692 691 686 679 675 672 670 665 658 653 649 647 648 647 645 645 646 647 648 647 648 648 649 653 656 659 661 664 666 670 674 678 682 686 689 693 696 699 702 704 709 714 718 722 726 729 731 734 737 739 740 743 746 747 749 754 759 763 767 770 773 776 779
724 722 721 722 723 724 727 728 725 721 714 711 708 703 698 700 703 706 707 705 702 699 695 693 692 685 680 677 674 671 666 658 653 651 650 649 649 648 648 648 649 650 651 650 651 653 654 655 657 660 663 666 670 673 677 680 684 687 691 694 696 700 704 709 713 717 721 725 728 731 733 736 737 739 742 745 746 749 754 758 762 765 769 772 774 777
733 731 729 728 727 727 728 727 728 726 717 712 712 706 700 703 706 705 704 702 701 700 697 695 691 685 681 678 672 668 664 659 654 652 651 651 652 652 652 652 652 654 654 654 656 658 660 661 661 662 664 667 670 672 675 679 682 685 689 691 695 700 704 708 711 715 719 723 727 730 732 734 736 739 742 744 745 748 752 757 761 765 769 772 774 777
732 734 737 736 731 733 736 733 731 728 720 716 716 711 706 706 705 704 704 701 698 697 697 695 690 685 682 680 673 667 664 662 659 654 652 654 656 656 655 655 655 655 655 655 657 658 661 666 669 670 669 668 669 671 673 675 679 683 686 689 694 699 702 706 710 714 718 721 724 728 732 734 736 739 742 744 746 749 752 756 760 764 767 771 773 776
732 732 736 736 733 735 736 731 726 723 719 717 716 713 709 707 705 704 704 701 697 695 695 695 691 684 681 680 675 667 663 665 666 660 656 657 658 658 658 658 658 657 657 657 658 658 659 663 668 674 676 674 670 669 670 672 675 679 683 687 692 696 700 704 708 712 716 720 723 726 731 734 737 739 742 744 747 750 752 755 759 763 766 769 772 775
731 731 733 733 732 731 728 725 723 720 717 714 713 710 707 705 703 703 703 700 696 693 693 693 689 683 680 679 675 669 665 668 670 666 662 661 660 660 661 660 660 660 660 659 659 660 660 661 664 670 676 680 679 675 672 671 672 675 679 684 689 693 697 701 706 710 714 718 722 725 729 733 736 739 741 744 747 749 751 753 756 760 764 767 771 774
731 731 730 729 730 728 723 718 717 716 715 713 711 708 705 703 702 702 702 699 695 694 693 690 685 682 681 679 676 671 667 667 669 668 665 663 662 661 662 662 662 661 661 661 661 661 661 663 665 667 672 679 684 683 680 677 676 676 679 683 687 691 695 699 704 709 713 717 721 724 727 731 735 738 741 744 747 749 751 753 756 759 762 766 769 772
730 730 729 728 730 727 719 713 712 713 712 711 710 708 707 706 705 703 702 700 696 693 689 685 684 684 682 678 676 673 670 669 668 667 665 664 663 662 662 662 663 663 662 662 662 662 663 665 667 669 671 677 684 688 687 684 683 683 682 684 687 691 694 698 703 707 712 716 720 723 727 730 734 737 740 743 746 748 751 753 756 758 760 762 764 766
729 731 731 730 730 726 718 713 713 713 711 708 708 707 706 706 707 705 705 703 698 693 689 688 688 687 683 680 677 674 673 672 670 667 666 664 664 664 663 663 664 665 665 665 665 664 665 665 666 668 671 674 681 687 689 689 688 687 685 686 689 692 695 699 704 708 712 716 720 724 727 731 734 736 739 742 745 748 749 751 753 755 757 758 760 761
728 729 728 729 732 728 719 714 715 716 714 710 709 709 708 707 706 706 705 704 700 697 695 694 692 688 683 681 679 676 674 673 672 671 669 667 667 667 666 665 666 666 667 668 668 667 667 668 668 669 670 673 677 683 688 692 692 691 688 688 691 693 696 700 705 709 713 717 720 724 727 730 734 737 739 742 744 747 749 750 752 753 755 757 759 760
725 725 724 727 729 725 718 714 715 717 715 711 710 712 711 710 707 703 701 701 702 700 697 695 693 689 684 681 681 680 677 675 674 673 671 671 671 669 667 667 668 668 669 669 669 671 671 671 672 673 674 676 678 681 686 690 692 693 692 692 693 695 698 701 706 710 715 718 721 724 726 729 732 735 738 740 742 744 747 749 751 753 754 756 757 759